Regional Weather Roundup
Issued by NWS

Home | Current Version | Previous Version | Graphics & Text | Print | Product List | Glossary On
Versions: 1 2 3 4 5 6 7 8 9 10 11 12 13 14 15 16 17 18 19 20 21 22 23 24 25 26 27 28 29 30 31 32 33 34 35 36 37 38 39 40 41 42 43 44 45 46 47 48 49 50
000
ASUS44 KMEG 010200
RWRTN
TENNESSEE HOURLY STATE WEATHER ROUNDUP
NATIONAL WEATHER SERVICE MEMPHIS TN
900 PM CDT MON AUG 31 2015

TNZ002-004-019-021-049-052-054-088>092-010300-
WEST TENNESSEE

CITY           SKY/WX    TMP DP  RH WIND       PRES   REMARKS
MEMPHIS INTL   MOCLDY    84  66  54 SE5       30.05R
NWS MEMPHIS      N/A     81 N/A N/A MISG        N/A
JACKSON        PTCLDY    71  68  90 CALM      30.07R
DYERSBURG      CLEAR     73  70  88 CALM      30.07R
UNION CITY     CLEAR     73  72  94 CALM      30.07R
PARIS          CLEAR     70  66  88 CALM      30.10R
LEXINGTON      CLEAR     72  70  94 CALM      30.08R
$$

TNZ008-025-027-028-033-062-065-066-010300-
NORTH MIDDLE TENNESSEE

CITY           SKY/WX    TMP DP  RH WIND       PRES   REMARKS
NASHVILLE      PTCLDY    80  63  55 E3        30.10R
CLARKSVILLE    CLEAR     73  66  78 CALM      30.08R
COOKEVILLE     CLEAR     70  68  94 CALM      30.11R
CROSSVILLE     CLEAR     70  66  87 CALM      30.16R
$$

TNZ061-075-076-078-094-096-097-010300-
SOUTH MIDDLE TENNESSEE

CITY           SKY/WX    TMP DP  RH WIND       PRES   REMARKS
FAYETTEVILLE   CLEAR     72  66  83 CALM      30.11R
TULLAHOMA      CLEAR     70  66  88 CALM      30.13R
WINCHESTER     CLEAR     70  68  94 CALM      30.12R
COLUMBIA       CLEAR     73  73 100 CALM      30.09R
SHELBYVILLE    PTCLDY    72  72 100 E3        30.12R
$$

TNZ017-018-042-046-047-010300-
NORTHEAST TENNESSEE

CITY           SKY/WX    TMP DP  RH WIND       PRES   REMARKS
TRI CITIES     CLEAR     69  65  86 CALM      30.13R
ELIZABETHTON   CLEAR     64  63  94 CALM      30.15R
$$

TNZ012-013-036-069-073-074-010300-
CENTRAL EAST TENNESSEE

CITY           SKY/WX    TMP DP  RH WIND       PRES   REMARKS
KNOXVILLE      CLEAR     74  66  76 CALM      30.09R
OAK RIDGE      CLEAR     73  68  84 CALM      30.12R
GATLINBURG     CLEAR     72  61  68 CALM      30.11R
$$

TNZ083-085-099-010300-
SOUTHEAST TENNESSEE

CITY           SKY/WX    TMP DP  RH WIND       PRES   REMARKS
CHATTANOOGA    PTCLDY    75  68  78 CALM      30.10R
$$

SKY/WX REPORTED AS FAIR MEANS FEW OR NO CLOUDS BELOW
12 THOUSAND FEET.



USA.gov is the U.S. government's official web portal to all federal, state and local government web resources and services.